| time (UTC) | temp C | wind direction | speed KPH | gust KPH | rain 1hr cm | rain 24hr cm | rain mn cm | humidity % | barometer mb |
| 20260510204512 | 20 | 330 | 0.0 | 20.9 | 0.00 | 0.00 | 0.00 | 57 | 1011.4 |
| 20260510203009 | 21 | 328 | 9.7 | 25.7 | 0.00 | 0.00 | 0.00 | 51 | 1011.4 |
| 20260510201506 | 23 | 16 | 11.3 | 37.0 | 0.00 | 0.00 | 0.00 | 42 | 1011.1 |
| 20260510200004 | 24 | 257 | 0.0 | 4.8 | 0.00 | 0.00 | 0.00 | 35 | 1010.6 |
| 20260510194506 | 25 | 252 | 4.8 | 17.7 | 0.00 | 0.00 | 0.00 | 33 | 1011.0 |
| 20260510193102 | 26 | 270 | 4.8 | 11.3 | 0.00 | 0.00 | 0.00 | 30 | 1010.8 |
| 20260510191558 | 26 | 260 | 1.6 | 9.7 | 0.00 | 0.00 | 0.00 | 29 | 1010.9 |
| 20260510190058 | 27 | 240 | 1.6 | 8.0 | 0.00 | 0.00 | 0.00 | 26 | 1010.9 |
| 20260510184554 | 28 | 112 | 3.2 | 8.0 | 0.00 | 0.00 | 0.00 | 24 | 1010.9 |
| 20260510183058 | 27 | 104 | 3.2 | 14.5 | 0.00 | 0.00 | 0.00 | 27 | 1010.9 |
| 20260510181617 | 27 | 205 | 0.0 | 11.3 | 0.00 | 0.00 | 0.00 | 28 | 1011.1 |
| 20260510180057 | 27 | 256 | 0.0 | 8.0 | 0.00 | 0.00 | 0.00 | 28 | 1011.2 |
| 20260510174555 | 27 | 274 | 3.2 | 14.5 | 0.00 | 0.00 | 0.00 | 26 | 1011.4 |
| 20260510173040 | 27 | 277 | 4.8 | 8.0 | 0.00 | 0.00 | 0.00 | 28 | 1011.5 |
| 20260510171538 | 26 | 188 | 0.0 | 4.8 | 0.00 | 0.00 | 0.00 | 28 | 1011.7 |
| 20260510170036 | 27 | 8 | 3.2 | 11.3 | 0.00 | 0.00 | 0.00 | 28 | 1011.8 |
| 20260510164540 | 27 | 285 | 1.6 | 11.3 | 0.00 | 0.00 | 0.00 | 29 | 1011.7 |
| 20260510163029 | 26 | 276 | 0.0 | 6.4 | 0.00 | 0.00 | 0.00 | 31 | 1011.8 |
| 20260510161526 | 26 | 312 | 0.0 | 8.0 | 0.00 | 0.00 | 0.00 | 31 | 1012.1 |
| 20260510160033 | 26 | 252 | 1.6 | 14.5 | 0.00 | 0.00 | 0.00 | 32 | 1012.2 |
| 20260510154520 | 26 | 356 | 0.0 | 9.7 | 0.00 | 0.00 | 0.00 | 34 | 1012.3 |
| 20260510153017 | 26 | 231 | 1.6 | 11.3 | 0.00 | 0.00 | 0.00 | 32 | 1012.3 |
| 20260510151512 | 25 | 180 | 1.6 | 6.4 | 0.00 | 0.00 | 0.00 | 33 | 1012.2 |
| 20260510150008 | 25 | 119 | 0.0 | 6.4 | 0.00 | 0.00 | 0.00 | 35 | 1012.2 |
| 20260510144503 | 23 | 236 | 0.0 | 4.8 | 0.00 | 0.00 | 0.00 | 38 | 1012.2 |
| 20260510143110 | 22 | 230 | 0.0 | 0.0 | 0.00 | 0.00 | 0.00 | 40 | 1012.0 |
| 20260510141554 | 21 | 179 | 0.0 | 0.0 | 0.00 | 0.00 | 0.00 | 42 | 1012.0 |
| 20260510140048 | 20 | 283 | 0.0 | 0.0 | 0.00 | 0.00 | 0.00 | 33 | 1011.9 |
| 20260510134544 | 19 | 149 | 0.0 | 0.0 | 0.00 | 0.00 | 0.00 | 35 | 1012.0 |
| 20260510133038 | 18 | 245 | 0.0 | 0.0 | 0.00 | 0.00 | 0.00 | 37 | 1012.0 |
| 20260510131538 | 18 | 250 | 0.0 | 0.0 | 0.00 | 0.00 | 0.00 | 37 | 1012.1 |
| 20260510130134 | 18 | 214 | 0.0 | 0.0 | 0.00 | 0.00 | 0.00 | 35 | 1012.0 |
| 20260510124532 | 18 | 124 | 1.6 | 4.8 | 0.00 | 0.00 | 0.00 | 39 | 1012.0 |
| 20260510123025 | 17 | 118 | 0.0 | 1.6 | 0.00 | 0.00 | 0.00 | 39 | 1012.1 |
| 20260510121520 | 16 | 44 | 0.0 | 6.4 | 0.00 | 0.00 | 0.00 | 44 | 1012.1 |
| 20260510120015 | 15 | 321 | 0.0 | 0.0 | 0.00 | 0.00 | 0.00 | 48 | 1011.8 |
| 20260510114511 | 13 | 321 | 0.0 | 0.0 | 0.00 | 0.00 | 0.00 | 46 | 1011.7 |
| 20260510113006 | 13 | 321 | 0.0 | 0.0 | 0.00 | 0.00 | 0.00 | 49 | 1011.5 |
| 20260510111503 | 11 | 321 | 0.0 | 0.0 | 0.00 | 0.00 | 0.00 | 49 | 1011.1 |
| 20260510110059 | 11 | 321 | 0.0 | 0.0 | 0.00 | 0.00 | 0.00 | 49 | 1011.0 |
| 20260510104556 | 10 | 266 | 0.0 | 1.6 | 0.00 | 0.00 | 0.00 | 49 | 1010.7 |
| 20260510103053 | 10 | 245 | 0.0 | 0.0 | 0.00 | 0.00 | 0.00 | 50 | 1010.7 |
| 20260510101552 | 9 | 245 | 0.0 | 1.6 | 0.00 | 0.00 | 0.00 | 50 | 1010.3 |
| 20260510100110 | 9 | 245 | 0.0 | 1.6 | 0.00 | 0.00 | 0.00 | 49 | 1010.2 |
| 20260510094555 | 9 | 245 | 0.0 | 1.6 | 0.00 | 0.00 | 0.00 | 49 | 1010.3 |
| 20260510093048 | 9 | 245 | 0.0 | 3.2 | 0.00 | 0.00 | 0.00 | 48 | 1010.3 |
| 20260510091540 | 10 | 13 | 0.0 | 0.0 | 0.00 | 0.00 | 0.00 | 49 | 1010.1 |
| 20260510090038 | 10 | 13 | 0.0 | 3.2 | 0.00 | 0.00 | 0.00 | 49 | 1010.1 |
| 20260510084536 | 10 | 356 | 0.0 | 6.4 | 0.00 | 0.00 | 0.00 | 49 | 1010.1 |
| 20260510083038 | 10 | 10 | 1.6 | 3.2 | 0.00 | 0.00 | 0.00 | 49 | 1010.0 |
| 20260510081530 | 10 | 288 | 0.0 | 0.0 | 0.00 | 0.00 | 0.00 | 48 | 1009.9 |
| 20260510080027 | 10 | 288 | 0.0 | 0.0 | 0.00 | 0.00 | 0.00 | 48 | 1009.7 |
| 20260510074523 | 10 | 288 | 0.0 | 1.6 | 0.00 | 0.00 | 0.00 | 47 | 1009.6 |
| 20260510073022 | 10 | 269 | 0.0 | 0.0 | 0.00 | 0.00 | 0.00 | 45 | 1009.6 |
| 20260510071532 | 10 | 277 | 0.0 | 0.0 | 0.00 | 0.00 | 0.00 | 42 | 1009.5 |
| 20260510070014 | 10 | 310 | 0.0 | 0.0 | 0.00 | 0.00 | 0.00 | 42 | 1009.2 |
| 20260510064511 | 11 | 310 | 0.0 | 0.0 | 0.00 | 0.00 | 0.00 | 42 | 1009.0 |
| 20260510063007 | 11 | 236 | 0.0 | 0.0 | 0.00 | 0.00 | 0.00 | 46 | 1008.9 |
| 20260510061502 | 11 | 6 | 0.0 | 0.0 | 0.00 | 0.00 | 0.00 | 48 | 1008.8 |
| 20260510060100 | 11 | 6 | 0.0 | 0.0 | 0.00 | 0.00 | 0.00 | 50 | 1008.8 |
| 20260510054556 | 12 | 6 | 0.0 | 1.6 | 0.00 | 0.00 | 0.00 | 53 | 1008.8 |
| 20260510053054 | 12 | 6 | 0.0 | 1.6 | 0.00 | 0.00 | 0.00 | 54 | 1008.9 |
| 20260510051550 | 12 | 230 | 0.0 | 0.0 | 0.00 | 0.00 | 0.00 | 53 | 1009.0 |
| 20260510050046 | 13 | 230 | 0.0 | 0.0 | 0.00 | 0.00 | 0.00 | 52 | 1009.0 |
| 20260510044546 | 13 | 287 | 0.0 | 0.0 | 0.00 | 0.00 | 0.00 | 53 | 1009.0 |
| 20260510043042 | 13 | 334 | 0.0 | 3.2 | 0.00 | 0.00 | 0.00 | 54 | 1008.8 |
| 20260510041537 | 13 | 148 | 0.0 | 0.0 | 0.00 | 0.00 | 0.00 | 55 | 1008.8 |
| 20260510040036 | 13 | 148 | 0.0 | 0.0 | 0.00 | 0.00 | 0.00 | 57 | 1008.6 |
| 20260510034539 | 13 | 148 | 0.0 | 0.0 | 0.00 | 0.00 | 0.00 | 59 | 1008.7 |
| 20260510033031 | 13 | 148 | 0.0 | 0.0 | 0.00 | 0.00 | 0.00 | 59 | 1008.6 |
| 20260510031539 | 14 | 148 | 0.0 | 0.0 | 0.00 | 0.00 | 0.00 | 59 | 1008.4 |
| 20260510030026 | 14 | 148 | 0.0 | 0.0 | 0.00 | 0.00 | 0.00 | 60 | 1008.6 |
| 20260510024536 | 15 | 148 | 0.0 | 0.0 | 0.00 | 0.00 | 0.00 | 61 | 1008.4 |
| 20260510023023 | 15 | 148 | 0.0 | 0.0 | 0.00 | 0.00 | 0.00 | 59 | 1008.4 |
| 20260510021523 | 15 | 148 | 0.0 | 0.0 | 0.00 | 0.00 | 0.00 | 59 | 1008.2 |
| 20260510020018 | 16 | 148 | 0.0 | 0.0 | 0.00 | 0.00 | 0.00 | 57 | 1008.0 |
| 20260510014518 | 16 | 148 | 0.0 | 0.0 | 0.00 | 0.00 | 0.00 | 56 | 1007.8 |
| 20260510013014 | 16 | 148 | 0.0 | 0.0 | 0.00 | 0.00 | 0.00 | 55 | 1007.6 |
| 20260510011512 | 17 | 148 | 0.0 | 0.0 | 0.00 | 0.00 | 0.00 | 53 | 1007.3 |
| 20260510010009 | 18 | 148 | 0.0 | 0.0 | 0.00 | 0.00 | 0.00 | 50 | 1007.1 |
| 20260510004508 | 18 | 148 | 0.0 | 0.0 | 0.00 | 0.00 | 0.00 | 48 | 1006.8 |
| 20260510003016 | 19 | 148 | 0.0 | 0.0 | 0.00 | 0.00 | 0.00 | 49 | 1006.7 |
| 20260510001504 | 20 | 153 | 0.0 | 0.0 | 0.00 | 0.00 | 0.00 | 45 | 1006.7 |
| 20260510000108 | 20 | 153 | 0.0 | 0.0 | 0.00 | 0.00 | 0.00 | 43 | 1006.6 |
| 20260509234615 | 20 | 153 | 0.0 | 0.0 | 0.00 | 0.00 | 0.00 | 42 | 1006.5 |
| 20260509233058 | 21 | 153 | 0.0 | 0.0 | 0.00 | 0.00 | 0.00 | 41 | 1006.4 |
| 20260509231556 | 22 | 153 | 0.0 | 0.0 | 0.00 | 0.00 | 0.00 | 39 | 1006.2 |
| 20260509230100 | 22 | 145 | 0.0 | 1.6 | 0.00 | 0.00 | 0.00 | 35 | 1006.4 |
| 20260509224553 | 23 | 264 | 0.0 | 0.0 | 0.00 | 0.00 | 0.00 | 37 | 1006.3 |
| 20260509223051 | 23 | 264 | 0.0 | 0.0 | 0.00 | 0.00 | 0.00 | 34 | 1006.4 |
| 20260509221548 | 22 | 264 | 0.0 | 0.0 | 0.00 | 0.00 | 0.00 | 36 | 1006.4 |
| 20260509220047 | 22 | 264 | 0.0 | 3.2 | 0.00 | 0.00 | 0.00 | 35 | 1006.4 |
| 20260509214545 | 22 | 258 | 0.0 | 4.8 | 0.00 | 0.00 | 0.00 | 36 | 1006.5 |
| 20260509213044 | 22 | 285 | 0.0 | 4.8 | 0.00 | 0.00 | 0.00 | 35 | 1006.4 |
| 20260509211540 | 23 | 290 | 4.8 | 12.9 | 0.00 | 0.00 | 0.00 | 33 | 1006.2 |
| 20260509210044 | 23 | 231 | 4.8 | 14.5 | 0.00 | 0.00 | 0.00 | 33 | 1006.3 |